Date String (YYYY-MM-DD hh:mm:ss) UTC,Instrument flags,Ambient pressure (hPa),Sample flow (lpm),Bypass flow (lpm),Sample temperature (°C),Ambient temperature (°C),ASC tube jacket temperature (°C),LED temperature (°C),Box temperature (°C),Sample RH (%),Span deviation,Mass concentration (μg/m³),Mass concentration (μg/m³),Mass concentration (μg/m³)
DateTimeUTC,F1_M11,P_M11,Q1_M11,Q2_M11,T1_M11,T2_M11,T3_M11,T4_M11,T5_M11,U1_M11,ZSPAN_M11,X0_M11,X2_M11,X1_M11
2021-09-18 07:00:00,,0832.2,4.99,0.00,28.8,28.1,00.0,38.0,30.5,18.2,0000.5,0023.12,0010.39,0008.74
2021-09-18 07:01:00,,0832.2,5.01,0.00,28.8,28.1,00.0,38.0,30.5,18.2,0000.8,0022.96,0010.36,0008.70
2021-09-18 07:02:00,,0832.3,5.01,0.00,28.8,28.1,00.0,38.0,30.6,18.5,0001.2,0022.73,0010.36,0008.67
2021-09-18 07:03:00,,0832.3,4.99,0.00,28.8,28.1,00.0,38.0,30.6,18.4,0001.5,0022.22,0010.26,0008.65
2021-09-18 07:04:00,,0832.3,5.00,0.00,28.8,28.1,00.0,38.0,30.5,18.3,0002.1,0020.88,0010.25,0008.64
2021-09-18 07:05:00,,0832.2,5.01,0.00,28.8,28.0,00.0,38.0,30.5,18.3,0002.0,0020.29,0010.23,0008.60
2021-09-18 07:06:00,,0832.2,5.00,0.00,28.8,28.0,00.0,38.0,30.5,18.4,0002.0,0020.94,0010.20,0008.58
2021-09-18 07:07:00,,0832.2,4.98,0.00,28.8,28.0,00.0,38.0,30.5,18.6,0002.1,0020.92,0010.24,0008.57
2021-09-18 07:08:00,,0832.3,5.00,0.00,28.8,28.0,00.0,38.0,30.5,18.6,0002.5,0022.55,0010.26,0008.53
2021-09-18 07:09:00,,0832.2,5.00,0.00,28.8,28.0,00.0,38.0,30.5,18.5,0002.7,0022.90,0010.25,0008.50
2021-09-18 07:10:00,,0832.2,4.99,0.00,28.7,28.0,00.0,38.0,30.5,18.7,0002.4,0022.42,0010.22,0008.48
2021-09-18 07:11:00,,0832.2,5.00,0.00,28.7,28.0,00.0,38.0,30.4,18.6,0002.2,0022.20,0010.24,0008.45
2021-09-18 07:12:00,,0832.2,4.99,0.00,28.7,28.0,00.0,38.0,30.4,18.4,0002.2,0022.60,0010.19,0008.43
2021-09-18 07:13:00,,0832.2,5.01,0.00,28.7,28.0,00.0,38.0,30.4,18.4,0002.6,0022.48,0010.15,0008.42
2021-09-18 07:14:00,,0832.3,5.02,0.00,28.7,28.0,00.0,38.0,30.4,18.3,0002.5,0022.70,0010.15,0008.40
2021-09-18 07:15:00,,0832.2,5.01,0.00,28.7,27.9,00.0,37.9,30.4,18.3,0002.3,0022.94,0010.12,0008.37
2021-09-18 07:16:00,,0832.2,4.99,0.00,28.7,27.9,00.0,37.9,30.4,18.2,0002.4,0022.62,0010.16,0008.36
2021-09-18 07:17:00,,0832.2,5.00,0.00,28.7,27.9,00.0,37.9,30.4,18.1,0002.2,0021.60,0010.14,0008.33
2021-09-18 07:18:00,,0832.2,5.00,0.00,28.7,27.9,00.0,37.9,30.4,18.3,0001.8,0020.70,0010.05,0008.28
2021-09-18 07:19:00,,0832.2,5.01,0.00,28.7,27.9,00.0,37.9,30.4,18.2,0001.5,0019.08,0009.99,0008.24
2021-09-18 07:20:00,,0832.2,5.00,0.00,28.6,27.9,00.0,37.9,30.4,18.2,0001.3,0018.74,0009.92,0008.22
2021-09-18 07:21:00,,0832.1,5.00,0.00,28.6,27.9,00.0,37.9,30.3,18.2,0001.4,0019.06,0009.88,0008.17
2021-09-18 07:22:00,,0832.1,4.99,0.00,28.6,27.9,00.0,37.9,30.3,18.3,0001.3,0019.05,0009.86,0008.14
2021-09-18 07:23:00,,0832.2,4.99,0.00,28.6,27.8,00.0,37.9,30.3,18.5,0001.5,0018.96,0009.86,0008.12
2021-09-18 07:24:00,,0832.1,4.99,0.00,28.6,27.8,00.0,37.9,30.3,18.3,0001.4,0018.71,0009.81,0008.08
2021-09-18 07:25:00,,0832.1,4.99,0.00,28.6,27.8,00.0,37.8,30.3,18.3,0001.0,0018.26,0009.74,0008.04
2021-09-18 07:26:00,,0832.2,4.99,0.00,28.6,27.8,00.0,37.8,30.3,18.6,0000.8,0017.99,0009.73,0008.02
2021-09-18 07:27:00,,0832.2,4.99,0.00,28.6,27.8,00.0,37.8,30.3,18.6,0001.1,0018.60,0009.63,0008.00
2021-09-18 07:28:00,,0832.2,5.01,0.00,28.6,27.8,00.0,37.8,30.3,18.7,0001.1,0018.90,0009.60,0007.97
2021-09-18 07:29:00,,0832.2,5.00,0.00,28.6,27.7,00.0,37.8,30.3,18.6,0001.1,0019.28,0009.63,0007.96
2021-09-18 07:30:00,,0832.1,4.99,0.00,28.6,27.7,00.0,37.8,30.2,18.8,0000.8,0019.65,0009.65,0007.95
2021-09-18 07:31:00,,0832.2,4.99,0.00,28.5,27.8,00.0,37.8,30.2,18.9,0000.9,0019.91,0009.65,0007.93
2021-09-18 07:32:00,,0832.1,4.99,0.00,28.5,27.8,00.0,37.8,30.2,19.0,0000.9,0020.83,0009.67,0007.93
2021-09-18 07:33:00,,0832.1,5.01,0.00,28.5,27.8,00.0,37.8,30.3,18.9,0001.3,0020.66,0009.61,0007.91
2021-09-18 07:34:00,,0832.1,4.99,0.00,28.5,27.7,00.0,37.8,30.2,19.0,0000.9,0020.62,0009.55,0007.89
2021-09-18 07:35:00,,0832.2,5.01,0.00,28.5,27.7,00.0,37.8,30.2,19.2,0001.3,0021.98,0009.60,0007.87
2021-09-18 07:36:00,,0832.1,5.00,0.00,28.5,27.7,00.0,37.8,30.2,19.3,0001.6,0022.77,0009.64,0007.85
2021-09-18 07:37:00,,0832.1,5.00,0.00,28.5,27.7,00.0,37.8,30.2,19.3,0001.8,0023.48,0009.65,0007.82
2021-09-18 07:38:00,,0832.1,5.02,0.00,28.5,27.7,00.0,37.7,30.2,19.0,0001.5,0023.42,0009.65,0007.81
2021-09-18 07:39:00,,0832.1,4.98,0.00,28.5,27.7,00.0,37.7,30.2,18.9,0001.5,0023.69,0009.69,0007.83
2021-09-18 07:40:00,,0832.1,5.00,0.00,28.5,27.7,00.0,37.7,30.2,18.9,0001.9,0024.34,0009.66,0007.83
2021-09-18 07:41:00,,0832.1,5.00,0.00,28.5,27.7,00.0,37.7,30.2,18.8,0002.3,0024.32,0009.65,0007.81
2021-09-18 07:42:00,,0832.1,5.00,0.00,28.5,27.7,00.0,37.7,30.2,18.4,0001.9,0023.99,0009.59,0007.81
2021-09-18 07:43:00,,0832.1,4.99,0.00,28.5,27.7,00.0,37.7,30.2,18.3,0001.9,0023.61,0009.56,0007.80
2021-09-18 07:44:00,,0832.1,5.00,0.00,28.5,27.7,00.0,37.7,30.2,18.2,0001.8,0024.34,0009.61,0007.80
2021-09-18 07:45:00,,0832.1,4.99,0.00,28.5,27.7,00.0,37.7,30.2,18.3,0002.0,0024.39,0009.60,0007.78
2021-09-18 07:46:00,,0832.1,5.00,0.00,28.4,27.7,00.0,37.7,30.1,18.4,0001.8,0023.66,0009.56,0007.79
2021-09-18 07:47:00,,0832.1,5.01,0.00,28.4,27.7,00.0,37.7,30.1,18.5,0001.5,0023.19,0009.47,0007.78
2021-09-18 07:48:00,,0832.1,5.00,0.00,28.4,27.7,00.0,37.7,30.1,18.7,0001.5,0022.38,0009.43,0007.76
2021-09-18 07:49:00,,0832.1,4.99,0.00,28.4,27.6,00.0,37.7,30.1,18.7,0001.5,0022.72,0009.43,0007.73
2021-09-18 07:50:00,,0832.1,5.00,0.00,28.4,27.6,00.0,37.7,30.1,18.7,0001.8,0023.13,0009.47,0007.73
2021-09-18 07:51:00,,0832.1,5.00,0.00,28.4,27.6,00.0,37.7,30.1,18.8,0002.3,0022.67,0009.48,0007.74
2021-09-18 07:52:00,,0832.1,5.01,0.00,28.4,27.6,00.0,37.6,30.1,18.9,0002.3,0022.46,0009.52,0007.77
2021-09-18 07:53:00,,0832.1,5.00,0.00,28.4,27.6,00.0,37.6,30.1,18.8,0002.2,0022.05,0009.65,0007.79
2021-09-18 07:54:00,,0832.1,4.99,0.00,28.4,27.6,00.0,37.6,30.1,18.7,0002.3,0021.47,0009.66,0007.80
2021-09-18 07:55:00,,0832.1,5.00,0.00,28.4,27.6,00.0,37.6,30.1,18.7,0001.8,0020.58,0009.63,0007.81
2021-09-18 07:56:00,,0832.0,5.00,0.00,28.4,27.6,00.0,37.6,30.1,18.6,0001.9,0020.39,0009.65,0007.83
2021-09-18 07:57:00,,0832.1,4.99,0.00,28.4,27.6,00.0,37.6,30.1,18.3,0001.9,0019.73,0009.65,0007.83
2021-09-18 07:58:00,,0832.1,5.00,0.00,28.4,27.6,00.0,37.6,30.1,18.7,0002.0,0020.20,0009.71,0007.85
2021-09-18 07:59:00,,0832.0,5.01,0.00,28.4,27.6,00.0,37.6,30.1,18.9,0001.8,0021.79,0009.82,0007.89
